Regional Weather Roundup
Issued by NWS

Home | Current Version | Previous Version | Graphics & Text | Print | Product List | Glossary On
Versions: 1 2 3 4 5 6 7 8 9 10 11 12 13 14 15 16 17 18 19 20 21 22 23 24 25 26 27 28 29 30 31 32 33 34 35 36 37 38 39 40 41 42 43 44 45 46 47 48 49 50
000
ASUS43 KMKX 171111
RWRWI

WISCONSIN REGIONAL WEATHER ROUNDUP
NATIONAL WEATHER SERVICE MILWAUKEE/SULLIVAN WI
500 AM CST TUE JAN 17 2017

NOTE: "FAIR" INDICATES FEW OR NO CLOUDS BELOW 12,000 FEET WITH NO
SIGNIFICANT WEATHER AND/OR OBSTRUCTIONS TO VISIBILITY.

WIZ001-002-006>008-014>016-023>028-171200-
NORTHWEST WISCONSIN

CITY           SKY/WX    TMP DP  RH WIND       PRES   REMARKS
SUPERIOR ARPT  CLOUDY    20  18  89 CALM      29.97F
ASHLAND        CLOUDY    24  19  81 CALM      29.97F
HAYWARD        CLOUDY    30  22  72 NE6       29.93F WCI  24
SIREN          CLOUDY    29  22  75 N3        29.94F
CUMBERLAND     LGT RAIN  32  32 100 N6        29.91S WCI  26
RICE LAKE      MIX PCPN  33  32  96 N8        29.92S WCI  26
CHETEK         MIX PCPN  32  32 100 N3        29.91R
LADYSMITH      MIX PCPN  34  33  95 NE8       29.91S WCI  27
EAU CLAIRE     LGT SNOW  32  32 100 CALM      29.88F FOG
MENOMONIE      LGT SNOW  33  33 100 NW3       29.90S
NEW RICHMOND   MIX PCPN  32  32 100 N7        29.92F WCI  26
OSCEOLA        LGT SNOW  31  31 100 N3        29.96F
$$

WIZ003>005-009-010-017-018-171200-
NORTH CENTRAL WISCONSIN

CITY           SKY/WX    TMP DP  RH WIND       PRES   REMARKS
MANITOWISH WTR CLOUDY    27  26  99 CALM      29.90F
ARBOR VITAE    LGT SNOW  32  30  92 NE3       29.90F
WOODRUFF       LGT SNOW  32  30  92 NE3       29.90F
RHINELANDER    CLOUDY    30  29  96 NE6       29.88F WCI  24
EAGLE RIVER    CLOUDY    28  23  84 NE6       29.89F WCI  21
LAND O LAKES   FLURRIES  27  23  84 CALM      29.92F
PHILLIPS       FLURRIES  32  31  99 NE8       29.89F WCI  24
TOMAHAWK       LGT RAIN  31  29  94 NE3       29.88F
MEDFORD        MIX PCPN  32  32  99 NE7       29.85S WCI  26
MERRILL        MIX PCPN  32  32 100 NE6         N/A  WCI  26
$$

WIZ029-030-035-036-043>047-171200-
CENTRAL WISCONSIN

CITY           SKY/WX    TMP DP  RH WIND       PRES   REMARKS
WAUSAU         CLOUDY    33  32  96 N5        29.84F FOG     WCI  29
MOSINEE        CLOUDY    32  32 100 N3        29.86S FOG
MARSHFIELD     CLOUDY    33  31  92 NE8       29.83F FOG     WCI  26
STEVENS POINT  MIX PCPN  31  31 100 NE6       29.85F WCI  25
WAUPACA        CLOUDY    34  33  94 CALM      29.85F FOG
WAUTOMA        CLOUDY   N/A N/A N/A NE7       29.83F FOG
WISC RAPIDS      N/A     33  33 100 NE5       29.86R FOG     WCI  29
CAMP DOUGLAS   CLOUDY    33  32  98 NW3       29.84F FOG
$$

WIZ011>013-019>022-031-037>040-048>050-171200-
NORTHEAST WISCONSIN

CITY           SKY/WX    TMP DP  RH WIND       PRES   REMARKS
ANTIGO         CLOUDY    31  31  99 NE8       29.85S FOG     WCI  24
SHAWANO        CLOUDY    34  32  94 NE5       29.86F FOG     WCI  29
OCONTO         CLOUDY    32  32  99 NE6       29.86F WCI  26
STURGEON BAY   MIX PCPN  35  34  96 NE10      29.86F FOG     WCI  27
GREEN BAY      CLOUDY    35  34  96 NE16      29.84F FOG     WCI  25
MANITOWOC      MIX PCPN  36  35  96 NE6       29.82F FOG     WCI  31
APPLETON       NOT AVBL
CLINTONVILLE   MIX PCPN  32  32 100 NE7       29.85F WCI  26
OSHKOSH        CLOUDY    33  32  96 NE12      29.81F FOG     WCI  24
$$

WIZ032>034-041-042-053>061-171200-
SOUTHWEST WISCONSIN

CITY           SKY/WX    TMP DP  RH WIND       PRES   REMARKS
LA CROSSE      CLOUDY    36  33  89 NW7       29.86F FOG     WCI  30
SPARTA         CLOUDY    32  32 100 NE3       29.86F
VIROQUA        CLOUDY    32  32 100 CALM      29.83S VSB 1/2
BOSCOBEL       CLOUDY    34  33  96 CALM      29.85S FOG
PRAIRIE DU CHI FOG       33  32  97 CALM      29.86S VSB 1
PLATTEVILLE    CLOUDY    33  33 100 NW6       29.82F VSB 1/2 WCI  28
$$

WIZ056-057-062-063-064-067-068-171200-
SOUTH CENTRAL WISCONSIN

CITY           SKY/WX    TMP DP  RH WIND       PRES   REMARKS
REEDSBURG      CLOUDY    32  32 100 CALM      29.83S FOG
BARABOO/DELLS  FOG       32  32 100 NE5       29.81S VSB 1   WCI  27
LONE ROCK      CLOUDY    34  32  92 NW5       29.84R FOG     WCI  30
MINERAL POINT  FOG       34  34 100 NW5       29.81F VSB 1/4 WCI  30
MADISON        CLOUDY    33  33 100 N5        29.81R FOG     WCI  29
MIDDLETON      CLOUDY    34  34 100 N3        29.81S VSB 1
WATERTOWN      CLOUDY    34  34 100 NW6       29.78S FOG     WCI  29
MONROE         FOG       34  34 100 N5        29.79R VSB 1/4 WCI  30
JANESVILLE     FOG       36  36 100 NW3       29.78S VSB 3/4
$$

WIZ051-052-058>065-066-070>072-171200-
SOUTHEAST WISCONSIN

CITY           SKY/WX    TMP DP  RH WIND       PRES   REMARKS
MILWAUKEE      FOG       37  35  92 N10       29.75F VSB 1/2 WCI  30
WAUKESHA       CLOUDY    34  34 100 N7        29.76F WCI  28
MILWAUKEE/TIMM CLOUDY    34  32  93 NE8       29.76F FOG     WCI  27
RACINE         LGT RAIN  37  36  96 N9        29.76F FOG     WCI  30
KENOSHA        LGT RAIN  36  36 100 N6        29.74S WCI  31
FOND DU LAC    LGT RAIN  34  32  92 NE10      29.80F FOG     WCI  26
SHEBOYGAN      CLOUDY    35  34  96 NE13      29.79F FOG     WCI  26
WEST BEND      DRIZZLE   34  34 100 N8        29.77F WCI  27
JUNEAU         CLOUDY    33  33  99 N7        29.80F FOG     WCI  27
$$

LSZ147-162-171200-
LAKE SUPERIOR

STATION/POSITION TIME  TEMP    WIND        PRES    WAVE
                       AIR SEA DIR/SP/G            HT/PER
                 (UTC) (F)     (DEG/KT/KT) (MB)    (FT/S)
DEVILS ISLAND    1100   34      30/  8/  8 1015.8F
PORT WING        1040   24     130/  1/  3 1015.2F
SAXON HARBOR     1030   26     190/  2/  2 1014.9F
$$

LMZ867-665-643>646-171200-
LAKE MICHIGAN

STATION/POSITION TIME  TEMP    WIND        PRES    WAVE
                       AIR SEA DIR/SP/G            HT/PER
                 (UTC) (F)     (DEG/KT/KT) (MB)    (FT/S)
NORTHPORT PIER   1040   34      40/ 14/ 17 1012.5F
SISTER BAY       1050   34      40/  8/ 12   N/A
ALGOMA LAKESHORE 0923           50/ 17/ 22   N/A
KEWAUNEE LAKESHO 1048   35      40/ 12/ 14 1010.0F
SHEBOYGAN LAKESH 1100   35      10/ 11/ 12 1009.5F
PORT WASHINGTON  1040   36      30/  5/  7 1009.8F
MILWAUKEE LAKESH 1050   36      30/ 12/ 13   N/A
KENOSHA   LAKESH 1100   37     360/ 11/ 12 1007.5
$$

TC  - TEMPERATURE IN CELSIUS
VSB - VISIBILITY IN STATUTE MILES
WCI - WIND CHILL INDEX
HX  - HEAT INDEX





USA.gov is the U.S. government's official web portal to all federal, state and local government web resources and services.